Retour au catalogue

FLOCK 4H 15

ActifScienceSSO
NORAD 66718·PAYLOAD·🇺🇸 United States

Lancé Nov 28, 2025 depuis Vandenberg Space Force Base

Loading…

Prochains Passages (prochaines 24 heures)

TLE

FraisSource: CelesTrak SupGP

Époque: Sep 14, 2026, 22:45 UTC

1 66718C 25276BE  26257.94797454  .00014849  00000+0  66481-3 0  2571
2 66718  97.4140 329.9827 0004575  73.3669 208.7590 15.21322837    16

Suivez FLOCK 4H 15 en temps réel avec AllMySat

Download on the App Store